VIR982 EGLL-KJFK

Flight info

Callsign VIR982
Flight time 7h 17m
Altitude 36000
Route CPT L9 BIBPE DCT BUCGO DCT FELCA DCT OFSOX DCT BANBA DCT TOBOR/M082F360 DCT 5230N02000W 5130N03000W 5030N04000W 4930N05000W DCT IBERG/N0470F360 N364A TUSKY DCT PLYMM PARCH4
Aircraft A346/H-SDE2E3FGHIJ3J4J5M1RWXY/LB1D1

Departure

Time 2026-05-07 02:42
Airport London Heathrow Airport (EGLL)

Arrival

Time 2026-05-07 09:59
Airport John F. Kennedy International Airport (KJFK)
Time Latitude Longitude Altitude Speed Heading
2026-05-07 02:23 51.46959 -0.46480 94 ft 0 kts 55°
2026-05-07 02:32 51.46954 -0.46492 95 ft 4 kts 56°
2026-05-07 02:32 51.46939 -0.46527 97 ft 2 kts 56°
2026-05-07 02:33 51.46929 -0.46557 96 ft 4 kts 77°
2026-05-07 02:33 51.46929 -0.46585 95 ft 4 kts 116°
2026-05-07 02:33 51.46944 -0.46610 94 ft 4 kts 144°
2026-05-07 02:33 51.46966 -0.46633 97 ft 3 kts 146°
2026-05-07 02:34 51.46969 -0.46636 97 ft 0 kts 146°
2026-05-07 02:36 51.46965 -0.46632 98 ft 3 kts 146°
2026-05-07 02:37 51.46907 -0.46569 97 ft 17 kts 146°
2026-05-07 02:37 51.46783 -0.46446 97 ft 19 kts 171°
2026-05-07 02:37 51.46757 -0.46557 97 ft 9 kts 275°
2026-05-07 02:37 51.46748 -0.46669 98 ft 11 kts 269°
2026-05-07 02:38 51.46747 -0.46811 98 ft 13 kts 270°
2026-05-07 02:38 51.46747 -0.46972 98 ft 17 kts 270°
2026-05-07 02:38 51.46747 -0.47171 98 ft 19 kts 270°
2026-05-07 02:38 51.46747 -0.47397 98 ft 21 kts 270°
2026-05-07 02:39 51.46746 -0.47641 98 ft 23 kts 268°
2026-05-07 02:39 51.46744 -0.47901 94 ft 24 kts 270°
2026-05-07 02:39 51.46743 -0.48180 94 ft 25 kts 269°
2026-05-07 02:39 51.46741 -0.48466 94 ft 26 kts 269°
2026-05-07 02:40 51.46740 -0.48680 94 ft 13 kts 263°
2026-05-07 02:40 51.46667 -0.48749 96 ft 14 kts 181°
2026-05-07 02:40 51.46565 -0.48781 97 ft 16 kts 197°
2026-05-07 02:40 51.46477 -0.48716 98 ft 16 kts 109°
2026-05-07 02:41 51.46478 -0.48572 96 ft 2 kts 89°
2026-05-07 02:41 51.46478 -0.48565 96 ft 2 kts 89°
2026-05-07 02:41 51.46479 -0.48468 95 ft 33 kts 89°
2026-05-07 02:41 51.46481 -0.47642 94 ft 111 kts 90°
2026-05-07 02:42 51.46482 -0.46032 96 ft 173 kts 90°
2026-05-07 02:42 51.46490 -0.43915 500 ft 192 kts 89°
2026-05-07 02:42 51.46496 -0.42512 1143 ft 189 kts 89°
2026-05-07 02:42 51.46229 -0.40472 2079 ft 185 kts 124°
2026-05-07 02:43 51.45186 -0.39251 2542 ft 195 kts 164°
2026-05-07 02:43 51.43369 -0.39689 3034 ft 212 kts 213°
2026-05-07 02:43 51.42659 -0.40844 3341 ft 221 kts 234°
2026-05-07 02:43 51.41787 -0.42985 3806 ft 237 kts 237°
2026-05-07 02:44 51.40870 -0.45270 4275 ft 255 kts 239°
2026-05-07 02:44 51.40292 -0.47993 4903 ft 264 kts 267°
2026-05-07 02:44 51.40500 -0.50919 5778 ft 265 kts 282°
2026-05-07 02:44 51.40944 -0.53808 6596 ft 268 kts 283°
2026-05-07 02:45 51.41394 -0.56732 7321 ft 272 kts 283°
2026-05-07 02:45 51.41815 -0.59719 8063 ft 275 kts 282°
2026-05-07 02:45 51.42210 -0.62741 8808 ft 278 kts 282°
2026-05-07 02:45 51.42592 -0.65805 9579 ft 281 kts 282°
2026-05-07 02:46 51.42972 -0.68916 10324 ft 284 kts 282°
2026-05-07 02:46 51.43352 -0.72043 10786 ft 297 kts 282°
2026-05-07 02:46 51.43759 -0.75394 11108 ft 314 kts 282°
2026-05-07 02:46 51.44192 -0.78937 11423 ft 331 kts 282°
2026-05-07 02:47 51.44650 -0.82676 11736 ft 348 kts 282°
2026-05-07 02:47 51.45128 -0.86592 12036 ft 365 kts 282°
2026-05-07 02:47 51.45614 -0.90669 12477 ft 376 kts 281°
2026-05-07 02:47 51.46090 -0.94829 13200 ft 380 kts 281°
2026-05-07 02:48 51.46569 -0.99035 13950 ft 383 kts 281°
2026-05-07 02:48 51.47051 -1.03269 14587 ft 387 kts 281°
2026-05-07 02:48 51.47531 -1.07498 15224 ft 390 kts 281°
2026-05-07 02:48 51.48019 -1.11810 15875 ft 393 kts 280°
2026-05-07 02:49 51.48512 -1.16157 16527 ft 397 kts 281°
2026-05-07 02:49 51.49343 -1.20402 17130 ft 401 kts 295°
2026-05-07 02:49 51.50796 -1.24235 17767 ft 404 kts 308°
2026-05-07 02:49 51.52746 -1.27527 18401 ft 407 kts 316°
2026-05-07 02:50 51.54843 -1.30672 18939 ft 411 kts 316°
2026-05-07 02:50 51.56924 -1.33765 19468 ft 414 kts 316°
2026-05-07 02:50 51.59026 -1.37071 20005 ft 417 kts 312°
2026-05-07 02:50 51.60853 -1.40642 20532 ft 420 kts 306°
2026-05-07 02:51 51.62454 -1.44606 21083 ft 422 kts 299°
2026-05-07 02:51 51.63880 -1.48769 21612 ft 425 kts 298°
2026-05-07 02:51 51.65274 -1.52995 22135 ft 429 kts 297°
2026-05-07 02:51 51.66662 -1.57220 22645 ft 432 kts 297°
2026-05-07 02:52 51.68082 -1.61524 23147 ft 435 kts 297°
2026-05-07 02:52 51.69379 -1.65961 23633 ft 438 kts 291°
2026-05-07 02:52 51.70335 -1.70654 24061 ft 441 kts 284°
2026-05-07 02:52 51.70933 -1.75543 24468 ft 444 kts 278°
2026-05-07 02:53 51.71321 -1.80519 24879 ft 447 kts 277°
2026-05-07 02:53 51.71673 -1.85532 25273 ft 451 kts 276°
2026-05-07 02:53 51.72027 -1.90628 25658 ft 454 kts 276°
2026-05-07 02:53 51.72377 -1.95655 26049 ft 457 kts 277°
2026-05-07 02:54 51.72737 -2.00810 26422 ft 461 kts 277°
2026-05-07 02:54 51.73099 -2.05994 26788 ft 465 kts 277°
2026-05-07 02:54 51.73462 -2.11197 27156 ft 468 kts 277°
2026-05-07 02:54 51.73827 -2.16449 27522 ft 471 kts 277°
2026-05-07 02:55 51.74192 -2.21733 27924 ft 473 kts 277°
2026-05-07 02:55 51.74554 -2.27022 28456 ft 473 kts 277°
2026-05-07 02:55 51.74914 -2.32306 29026 ft 471 kts 277°
2026-05-07 02:55 51.75265 -2.37505 29563 ft 471 kts 277°
2026-05-07 02:56 51.75618 -2.42760 30072 ft 471 kts 277°
2026-05-07 02:56 51.75971 -2.48025 30485 ft 471 kts 277°
2026-05-07 02:56 51.76320 -2.53298 30878 ft 471 kts 277°
2026-05-07 02:56 51.76667 -2.58578 31319 ft 471 kts 277°
2026-05-07 02:57 51.77010 -2.63842 31778 ft 469 kts 276°
2026-05-07 02:57 51.77349 -2.69089 32237 ft 468 kts 276°
2026-05-07 02:57 51.77680 -2.74244 32674 ft 467 kts 276°
2026-05-07 02:57 51.78013 -2.79468 33089 ft 467 kts 277°
2026-05-07 02:58 51.78344 -2.84695 33487 ft 467 kts 277°
2026-05-07 02:58 51.78673 -2.89920 33869 ft 467 kts 277°
2026-05-07 02:58 51.79002 -2.95154 34242 ft 466 kts 277°
2026-05-07 02:58 51.79328 -3.00375 34546 ft 466 kts 276°
2026-05-07 02:59 51.79651 -3.05607 34813 ft 467 kts 276°
2026-05-07 02:59 51.79969 -3.10787 35063 ft 468 kts 276°
2026-05-07 02:59 51.80289 -3.16048 35312 ft 469 kts 276°
2026-05-07 02:59 51.80607 -3.21316 35561 ft 470 kts 276°
2026-05-07 03:00 51.80923 -3.26593 35804 ft 471 kts 276°
2026-05-07 03:00 51.81237 -3.31881 36015 ft 472 kts 276°
2026-05-07 03:00 51.81856 -3.42430 36051 ft 473 kts 276°
2026-05-07 03:01 51.82539 -3.53044 36041 ft 473 kts 278°
2026-05-07 03:01 51.83747 -3.63542 36040 ft 473 kts 282°
2026-05-07 03:02 51.85096 -3.73917 36034 ft 473 kts 282°
2026-05-07 03:02 51.86447 -3.84371 36035 ft 473 kts 282°
2026-05-07 03:03 51.87783 -3.94826 36033 ft 474 kts 282°
2026-05-07 03:03 51.89099 -4.05223 36030 ft 474 kts 282°
2026-05-07 03:04 51.90416 -4.15714 36024 ft 474 kts 282°
2026-05-07 03:04 51.91726 -4.26221 36022 ft 474 kts 282°
2026-05-07 03:05 51.93025 -4.36732 36023 ft 474 kts 282°
2026-05-07 03:05 51.94306 -4.47170 36021 ft 475 kts 282°
2026-05-07 03:06 51.95590 -4.57713 36015 ft 475 kts 282°
2026-05-07 03:06 51.96864 -4.68266 36014 ft 476 kts 281°
2026-05-07 03:07 51.98122 -4.78758 36011 ft 476 kts 281°
2026-05-07 03:07 51.99378 -4.89319 36009 ft 476 kts 281°
2026-05-07 03:08 52.00626 -4.99902 36008 ft 475 kts 281°
2026-05-07 03:08 52.01768 -5.10440 36005 ft 476 kts 278°
2026-05-07 03:09 52.02275 -5.21179 36006 ft 476 kts 271°
2026-05-07 03:09 52.02028 -5.31955 36008 ft 476 kts 264°
2026-05-07 03:10 52.01293 -5.42592 36006 ft 476 kts 263°
2026-05-07 03:10 52.00523 -5.53304 36005 ft 476 kts 263°
2026-05-07 03:11 51.99752 -5.64020 36001 ft 476 kts 263°
2026-05-07 03:11 51.98979 -5.74653 36007 ft 476 kts 263°
2026-05-07 03:12 51.98193 -5.85360 36000 ft 476 kts 263°
2026-05-07 03:12 51.97399 -5.96058 36003 ft 476 kts 263°
2026-05-07 03:13 51.96592 -6.06746 36006 ft 476 kts 263°
2026-05-07 03:13 51.95942 -6.17389 36006 ft 476 kts 267°
2026-05-07 03:14 51.95959 -6.28151 36003 ft 476 kts 274°
2026-05-07 03:15 51.97221 -6.44089 36002 ft 476 kts 279°
2026-05-07 03:15 51.98281 -6.54715 35997 ft 476 kts 279°
2026-05-07 03:16 51.99326 -6.65345 36003 ft 476 kts 279°
2026-05-07 03:16 52.00348 -6.75899 35995 ft 476 kts 279°
2026-05-07 03:17 52.01367 -6.86547 35990 ft 476 kts 279°
2026-05-07 03:17 52.02375 -6.97197 35992 ft 477 kts 279°
2026-05-07 03:18 52.03370 -7.07816 35989 ft 477 kts 278°
2026-05-07 03:18 52.04363 -7.18515 35983 ft 477 kts 278°
2026-05-07 03:19 52.05344 -7.29211 35982 ft 478 kts 278°
2026-05-07 03:19 52.06312 -7.39836 35989 ft 475 kts 278°
2026-05-07 03:20 52.07270 -7.50490 35982 ft 475 kts 278°
2026-05-07 03:20 52.08216 -7.61128 35982 ft 475 kts 278°
2026-05-07 03:21 52.09153 -7.71776 35980 ft 475 kts 278°
2026-05-07 03:21 52.10076 -7.82371 35981 ft 474 kts 278°
2026-05-07 03:22 52.10995 -7.93030 35976 ft 474 kts 278°
2026-05-07 03:22 52.11904 -8.03696 35984 ft 474 kts 277°
2026-05-07 03:23 52.12798 -8.14301 35983 ft 474 kts 277°
2026-05-07 03:23 52.13689 -8.24988 35979 ft 474 kts 277°
2026-05-07 03:24 52.14564 -8.35600 35980 ft 474 kts 277°
2026-05-07 03:24 52.15436 -8.46281 35979 ft 474 kts 277°
2026-05-07 03:25 52.16297 -8.56971 35979 ft 475 kts 277°
2026-05-07 03:25 52.17148 -8.67663 35981 ft 475 kts 277°
2026-05-07 03:26 52.17984 -8.78284 35990 ft 474 kts 277°
2026-05-07 03:26 52.18816 -8.88983 35986 ft 474 kts 277°
2026-05-07 03:27 52.19639 -8.99656 35998 ft 472 kts 276°
2026-05-07 03:27 52.20441 -9.10237 35996 ft 472 kts 276°
2026-05-07 03:28 52.21239 -9.20891 36002 ft 472 kts 276°
2026-05-07 03:28 52.22028 -9.31548 35991 ft 472 kts 276°
2026-05-07 03:29 52.22807 -9.42194 35999 ft 472 kts 276°
2026-05-07 03:29 52.23574 -9.52794 35992 ft 472 kts 276°
2026-05-07 03:30 52.24333 -9.63454 35988 ft 472 kts 276°
2026-05-07 03:30 52.25084 -9.74124 35984 ft 472 kts 276°
2026-05-07 03:31 52.25825 -9.84802 35977 ft 472 kts 276°
2026-05-07 03:31 52.26554 -9.95419 35979 ft 472 kts 275°
2026-05-07 03:32 52.27276 -10.06092 35978 ft 471 kts 275°
2026-05-07 03:32 52.27982 -10.16689 35974 ft 471 kts 275°
2026-05-07 03:33 52.28684 -10.27363 35982 ft 471 kts 275°
2026-05-07 03:33 52.29376 -10.38038 35977 ft 471 kts 275°
2026-05-07 03:34 52.29946 -10.46908 35974 ft 471 kts 275°
2026-05-07 03:34 52.30728 -10.59273 35972 ft 468 kts 274°
2026-05-07 03:35 52.31278 -10.68102 35970 ft 468 kts 274°
2026-05-07 03:35 52.31929 -10.78703 35966 ft 468 kts 274°
2026-05-07 03:36 52.32565 -10.89305 35963 ft 468 kts 274°
2026-05-07 03:36 52.33200 -10.99920 35965 ft 466 kts 274°
2026-05-07 03:37 52.33814 -11.10421 35962 ft 466 kts 274°
2026-05-07 03:37 52.34425 -11.20993 35960 ft 465 kts 274°
2026-05-07 03:38 52.35027 -11.31580 35961 ft 465 kts 274°
2026-05-07 03:38 52.35616 -11.42092 35960 ft 465 kts 274°
2026-05-07 03:39 52.36198 -11.52667 35960 ft 464 kts 274°
2026-05-07 03:39 52.36764 -11.63149 35964 ft 464 kts 274°
2026-05-07 03:40 52.37328 -11.73716 35959 ft 464 kts 274°
2026-05-07 03:40 52.37879 -11.84275 35954 ft 464 kts 273°
2026-05-07 03:41 52.38419 -11.94762 35956 ft 464 kts 273°
2026-05-07 03:41 52.38952 -12.05323 35952 ft 464 kts 273°
2026-05-07 03:42 52.39475 -12.15849 35954 ft 461 kts 273°
2026-05-07 03:42 52.39982 -12.26282 35952 ft 461 kts 273°
2026-05-07 03:43 52.40480 -12.36768 35950 ft 460 kts 272°
2026-05-07 03:43 52.40962 -12.47195 35949 ft 460 kts 272°
2026-05-07 03:44 52.41443 -12.57677 35951 ft 459 kts 272°
2026-05-07 03:44 52.41914 -12.68146 35946 ft 459 kts 272°
2026-05-07 03:45 52.42373 -12.78540 35945 ft 459 kts 272°
2026-05-07 03:45 52.42826 -12.89001 35946 ft 459 kts 272°
2026-05-07 03:46 52.43270 -12.99468 35946 ft 459 kts 272°
2026-05-07 03:46 52.43706 -13.09917 35942 ft 457 kts 272°
2026-05-07 03:47 52.44129 -13.20342 35941 ft 457 kts 271°
2026-05-07 03:47 52.44540 -13.30698 35941 ft 457 kts 271°
2026-05-07 03:48 52.44945 -13.41127 35942 ft 457 kts 271°
2026-05-07 03:48 52.45342 -13.51562 35941 ft 457 kts 271°
2026-05-07 03:49 52.45728 -13.61915 35942 ft 456 kts 271°
2026-05-07 03:49 52.46107 -13.72317 35946 ft 454 kts 271°
2026-05-07 03:50 52.46473 -13.82681 35939 ft 453 kts 270°
2026-05-07 03:50 52.46829 -13.93071 35941 ft 453 kts 270°
2026-05-07 03:51 52.47174 -14.03367 35942 ft 453 kts 270°
2026-05-07 03:51 52.47514 -14.13702 35943 ft 452 kts 270°
2026-05-07 03:52 52.47842 -14.24015 35940 ft 452 kts 270°
2026-05-07 03:52 52.48161 -14.34330 35938 ft 452 kts 270°
2026-05-07 03:53 52.48472 -14.44640 35939 ft 452 kts 270°
2026-05-07 03:53 52.48772 -14.54890 35938 ft 452 kts 270°
2026-05-07 03:54 52.49066 -14.65210 35942 ft 451 kts 270°
2026-05-07 03:54 52.49350 -14.75509 35941 ft 450 kts 270°
2026-05-07 03:55 52.49624 -14.85744 35940 ft 450 kts 270°
2026-05-07 03:55 52.49886 -14.95943 35940 ft 450 kts 269°
2026-05-07 03:56 52.50118 -15.05954 35941 ft 450 kts 269°
2026-05-07 03:56 52.50322 -15.16376 35939 ft 449 kts 269°
2026-05-07 03:57 52.50515 -15.26655 35940 ft 449 kts 269°
2026-05-07 03:57 52.50702 -15.36871 35938 ft 449 kts 269°
2026-05-07 03:58 52.50881 -15.47141 35938 ft 449 kts 269°
2026-05-07 03:58 52.51052 -15.57424 35938 ft 449 kts 269°
2026-05-07 03:59 52.51213 -15.67635 35938 ft 449 kts 269°
2026-05-07 03:59 52.51367 -15.77917 35941 ft 449 kts 268°
2026-05-07 04:00 52.51512 -15.88194 35941 ft 449 kts 268°
2026-05-07 04:00 52.51646 -15.98409 35946 ft 449 kts 268°
2026-05-07 04:01 52.51773 -16.08680 35946 ft 449 kts 268°
2026-05-07 04:01 52.51892 -16.18956 35951 ft 449 kts 268°
2026-05-07 04:02 52.52001 -16.29222 35945 ft 448 kts 268°
2026-05-07 04:02 52.52100 -16.39413 35949 ft 448 kts 268°
2026-05-07 04:03 52.52191 -16.49679 35947 ft 448 kts 268°
2026-05-07 04:03 52.52273 -16.59935 35949 ft 448 kts 268°
2026-05-07 04:04 52.52345 -16.70121 35956 ft 448 kts 268°
2026-05-07 04:04 52.52409 -16.80371 35953 ft 447 kts 268°
2026-05-07 04:05 52.52466 -16.90602 35960 ft 447 kts 268°
2026-05-07 04:05 52.52513 -17.00754 35951 ft 445 kts 268°
2026-05-07 04:06 52.52551 -17.10949 35950 ft 445 kts 267°
2026-05-07 04:06 52.52580 -17.21130 35958 ft 445 kts 267°
2026-05-07 04:07 52.52600 -17.31316 35956 ft 444 kts 267°
2026-05-07 04:07 52.52612 -17.41493 35954 ft 444 kts 267°
2026-05-07 04:08 52.52615 -17.51604 35952 ft 444 kts 267°
2026-05-07 04:08 52.52609 -17.61784 35951 ft 444 kts 267°
2026-05-07 04:09 52.52594 -17.71945 35954 ft 444 kts 267°
2026-05-07 04:09 52.52571 -17.82067 35954 ft 445 kts 267°
2026-05-07 04:10 52.52539 -17.92274 35951 ft 445 kts 267°
2026-05-07 04:10 52.52499 -18.02463 35952 ft 445 kts 267°
2026-05-07 04:11 52.52449 -18.12659 35958 ft 445 kts 266°
2026-05-07 04:11 52.52392 -18.22788 35956 ft 445 kts 266°
2026-05-07 04:12 52.52323 -18.32967 35947 ft 445 kts 266°
2026-05-07 04:12 52.52248 -18.43160 35952 ft 445 kts 266°
2026-05-07 04:13 52.52164 -18.53348 35968 ft 445 kts 266°
2026-05-07 04:13 52.52072 -18.63475 35983 ft 445 kts 266°
2026-05-07 04:14 52.51970 -18.73666 35965 ft 445 kts 266°
2026-05-07 04:14 52.51858 -18.83852 35972 ft 445 kts 266°
2026-05-07 04:15 52.51740 -18.94044 35966 ft 445 kts 266°
2026-05-07 04:15 52.51613 -19.04170 35969 ft 445 kts 266°
2026-05-07 04:16 52.51477 -19.14364 35967 ft 445 kts 266°
2026-05-07 04:16 52.51356 -19.22841 35966 ft 445 kts 266°
2026-05-07 04:17 52.51177 -19.34695 35980 ft 446 kts 266°
2026-05-07 04:17 52.51042 -19.43254 35968 ft 446 kts 266°
2026-05-07 04:18 52.50873 -19.53402 35974 ft 446 kts 266°
2026-05-07 04:18 52.50695 -19.63624 35980 ft 446 kts 266°
2026-05-07 04:19 52.50508 -19.73832 35983 ft 446 kts 266°
2026-05-07 04:19 52.50312 -19.84036 35976 ft 446 kts 266°
2026-05-07 04:20 52.50107 -19.94182 35986 ft 446 kts 266°
2026-05-07 04:20 52.49736 -20.04379 35979 ft 445 kts 263°
2026-05-07 04:21 52.48865 -20.19606 35981 ft 445 kts 263°
2026-05-07 04:21 52.48273 -20.29741 35976 ft 445 kts 263°
2026-05-07 04:22 52.47675 -20.39828 35983 ft 446 kts 263°
2026-05-07 04:22 52.47067 -20.49988 35982 ft 446 kts 263°
2026-05-07 04:23 52.46451 -20.60136 35984 ft 446 kts 263°
2026-05-07 04:23 52.45830 -20.70218 35978 ft 446 kts 262°
2026-05-07 04:24 52.45196 -20.80367 35977 ft 446 kts 262°
2026-05-07 04:24 52.44553 -20.90509 35978 ft 446 kts 262°
2026-05-07 04:25 52.43906 -21.00579 35988 ft 446 kts 262°
2026-05-07 04:25 52.43247 -21.10700 35988 ft 446 kts 262°
2026-05-07 04:26 52.42579 -21.20835 35984 ft 446 kts 262°
2026-05-07 04:26 52.41906 -21.30890 35989 ft 446 kts 262°
2026-05-07 04:27 52.41218 -21.41025 35992 ft 447 kts 262°
2026-05-07 04:27 52.40523 -21.51159 35990 ft 447 kts 262°
2026-05-07 04:28 52.39818 -21.61314 35992 ft 447 kts 262°
2026-05-07 04:28 52.39105 -21.71457 35990 ft 447 kts 262°
2026-05-07 04:29 52.38387 -21.81530 35990 ft 447 kts 262°
2026-05-07 04:29 52.37654 -21.91682 35986 ft 449 kts 262°
2026-05-07 04:30 52.36911 -22.01867 35987 ft 449 kts 262°
2026-05-07 04:30 52.36160 -22.12041 35993 ft 449 kts 262°
2026-05-07 04:31 52.35399 -22.22218 35991 ft 450 kts 262°
2026-05-07 04:31 52.34634 -22.32331 35991 ft 450 kts 262°
2026-05-07 04:32 52.33851 -22.42538 35990 ft 453 kts 262°
2026-05-07 04:32 52.33056 -22.52797 35995 ft 455 kts 262°
2026-05-07 04:33 52.32251 -22.63094 35991 ft 455 kts 262°
2026-05-07 04:33 52.31442 -22.73307 35990 ft 455 kts 262°
2026-05-07 04:34 52.30619 -22.83592 35990 ft 455 kts 262°
2026-05-07 04:34 52.29776 -22.93908 35990 ft 458 kts 262°
2026-05-07 04:35 52.28938 -23.04178 35992 ft 458 kts 262°
2026-05-07 04:35 52.28085 -23.14512 35995 ft 458 kts 262°
2026-05-07 04:36 52.27221 -23.24844 35994 ft 458 kts 262°
2026-05-07 04:36 52.26347 -23.35170 35987 ft 458 kts 262°
2026-05-07 04:37 52.25467 -23.45423 35989 ft 457 kts 262°
2026-05-07 04:37 52.24580 -23.55733 35992 ft 457 kts 262°
2026-05-07 04:38 52.23682 -23.66048 35998 ft 457 kts 262°
2026-05-07 04:38 52.22780 -23.76280 35992 ft 457 kts 262°
2026-05-07 04:39 52.21862 -23.86572 35992 ft 457 kts 262°
2026-05-07 04:39 52.20936 -23.96846 35992 ft 456 kts 262°
2026-05-07 04:40 52.20004 -24.07103 35997 ft 457 kts 262°
2026-05-07 04:40 52.19062 -24.17369 35991 ft 457 kts 262°
2026-05-07 04:41 52.18111 -24.27622 35995 ft 457 kts 262°
2026-05-07 04:41 52.17156 -24.37812 35992 ft 457 kts 262°
2026-05-07 04:42 52.16184 -24.48079 35989 ft 456 kts 262°
2026-05-07 04:42 52.15206 -24.58334 35996 ft 458 kts 262°
2026-05-07 04:43 52.14212 -24.68610 35999 ft 458 kts 262°
2026-05-07 04:43 52.13222 -24.78817 36000 ft 459 kts 262°
2026-05-07 04:44 52.12211 -24.89096 35991 ft 459 kts 262°
2026-05-07 04:44 52.11192 -24.99386 36000 ft 458 kts 262°
2026-05-07 04:45 52.10175 -25.09600 36005 ft 459 kts 262°
2026-05-07 04:45 52.09138 -25.19876 36001 ft 459 kts 262°
2026-05-07 04:46 52.08092 -25.30140 35994 ft 459 kts 262°
2026-05-07 04:46 52.07034 -25.40359 35988 ft 462 kts 263°
2026-05-07 04:47 52.05964 -25.50698 36003 ft 462 kts 263°
2026-05-07 04:47 52.04891 -25.61026 36006 ft 463 kts 263°
2026-05-07 04:48 52.03801 -25.71356 36005 ft 463 kts 262°
2026-05-07 04:48 52.02704 -25.81617 36007 ft 462 kts 263°
2026-05-07 04:49 52.01598 -25.91944 36006 ft 463 kts 263°
2026-05-07 04:49 52.00482 -26.02257 36006 ft 463 kts 263°
2026-05-07 04:50 51.99356 -26.12573 36009 ft 463 kts 262°
2026-05-07 04:50 51.98227 -26.22819 36017 ft 463 kts 262°
2026-05-07 04:51 51.97075 -26.33122 35994 ft 463 kts 262°
2026-05-07 04:51 51.95921 -26.43447 36011 ft 465 kts 262°
2026-05-07 04:52 51.94759 -26.53786 36013 ft 465 kts 262°
2026-05-07 04:52 51.93588 -26.64061 36012 ft 465 kts 262°
2026-05-07 04:53 51.92400 -26.74412 36014 ft 466 kts 262°
2026-05-07 04:53 51.91208 -26.84708 36003 ft 467 kts 262°
2026-05-07 04:54 51.89996 -26.95096 36012 ft 468 kts 262°
2026-05-07 04:54 51.88777 -27.05474 36019 ft 468 kts 262°
2026-05-07 04:55 51.87555 -27.15784 36022 ft 468 kts 262°
2026-05-07 04:55 51.86314 -27.26170 36022 ft 468 kts 262°
2026-05-07 04:56 51.85060 -27.36553 36011 ft 470 kts 262°
2026-05-07 04:56 51.83799 -27.46950 36018 ft 470 kts 262°
2026-05-07 04:57 51.82535 -27.57288 36025 ft 470 kts 262°
2026-05-07 04:57 51.81253 -27.67680 36023 ft 470 kts 262°
2026-05-07 04:58 51.79962 -27.78065 36008 ft 470 kts 262°
2026-05-07 04:58 51.78666 -27.88406 36028 ft 472 kts 262°
2026-05-07 04:59 51.77352 -27.98823 36030 ft 472 kts 262°
2026-05-07 04:59 51.76028 -28.09245 36031 ft 472 kts 262°
2026-05-07 05:00 51.74695 -28.19645 36032 ft 472 kts 262°
2026-05-07 05:00 51.73351 -28.30053 36026 ft 473 kts 262°
2026-05-07 05:01 51.72003 -28.40422 36033 ft 474 kts 262°
2026-05-07 05:01 51.70635 -28.50876 36032 ft 474 kts 262°
2026-05-07 05:02 51.69260 -28.61300 36037 ft 474 kts 262°
2026-05-07 05:02 51.67880 -28.71661 36038 ft 474 kts 262°
2026-05-07 05:03 51.66483 -28.82080 36033 ft 475 kts 262°
2026-05-07 05:03 51.65081 -28.92505 36034 ft 476 kts 262°
2026-05-07 05:04 51.63665 -29.02939 36037 ft 476 kts 262°
2026-05-07 05:04 51.62241 -29.13353 36038 ft 476 kts 262°
2026-05-07 05:05 51.60804 -29.23779 36022 ft 476 kts 262°
2026-05-07 05:05 51.59363 -29.34162 36036 ft 478 kts 262°
2026-05-07 05:06 51.57903 -29.44619 36040 ft 478 kts 262°
2026-05-07 05:06 51.56682 -29.53308 36051 ft 478 kts 262°
2026-05-07 05:07 51.54965 -29.65444 36047 ft 478 kts 262°
2026-05-07 05:07 51.53727 -29.74131 36050 ft 479 kts 262°
2026-05-07 05:08 51.52225 -29.84614 36049 ft 480 kts 262°
2026-05-07 05:08 51.50724 -29.95083 36045 ft 479 kts 263°
2026-05-07 05:09 51.49669 -30.05627 36053 ft 475 kts 269°
2026-05-07 05:09 51.49061 -30.16139 36058 ft 475 kts 270°
2026-05-07 05:10 51.48457 -30.26728 36053 ft 476 kts 270°
2026-05-07 05:10 51.47841 -30.37342 36060 ft 477 kts 270°
2026-05-07 05:11 51.47210 -30.47934 36052 ft 475 kts 270°
2026-05-07 05:11 51.46574 -30.58510 36057 ft 475 kts 270°
2026-05-07 05:12 51.45927 -30.69093 36064 ft 475 kts 270°
2026-05-07 05:12 51.45276 -30.79584 36065 ft 475 kts 270°
2026-05-07 05:13 51.44609 -30.90157 36062 ft 475 kts 269°
2026-05-07 05:13 51.43934 -31.00708 36062 ft 475 kts 269°
2026-05-07 05:14 51.43248 -31.11283 36069 ft 475 kts 269°
2026-05-07 05:14 51.42552 -31.21844 36039 ft 475 kts 269°
2026-05-07 05:15 51.41849 -31.32332 36062 ft 476 kts 269°
2026-05-07 05:15 51.41136 -31.42899 36063 ft 476 kts 269°
2026-05-07 05:16 51.40412 -31.53463 36065 ft 476 kts 269°
2026-05-07 05:16 51.39677 -31.64011 36066 ft 475 kts 269°
2026-05-07 05:17 51.38936 -31.74535 36046 ft 474 kts 270°
2026-05-07 05:17 51.38190 -31.84987 36070 ft 474 kts 270°
2026-05-07 05:18 51.37433 -31.95487 36070 ft 474 kts 269°
2026-05-07 05:18 51.36665 -32.05988 36072 ft 474 kts 269°
2026-05-07 05:19 51.35887 -32.16490 36081 ft 474 kts 269°
2026-05-07 05:19 51.35099 -32.26997 36059 ft 474 kts 269°
2026-05-07 05:20 51.34301 -32.37494 36076 ft 474 kts 269°
2026-05-07 05:20 51.33501 -32.47916 36081 ft 474 kts 269°
2026-05-07 05:21 51.32274 -32.63647 36096 ft 474 kts 269°
2026-05-07 05:22 51.31444 -32.74132 36098 ft 474 kts 269°
2026-05-07 05:22 51.30603 -32.84603 36093 ft 473 kts 269°
2026-05-07 05:23 51.29758 -32.95057 36099 ft 473 kts 269°
2026-05-07 05:23 51.28909 -33.05422 36110 ft 473 kts 269°
2026-05-07 05:24 51.28046 -33.15845 36114 ft 473 kts 269°
2026-05-07 05:24 51.27173 -33.26274 36115 ft 473 kts 269°
2026-05-07 05:25 51.26289 -33.36694 36114 ft 472 kts 269°
2026-05-07 05:25 51.25400 -33.47093 36120 ft 472 kts 269°
2026-05-07 05:26 51.24506 -33.57434 36126 ft 472 kts 269°
2026-05-07 05:26 51.23596 -33.67832 36126 ft 472 kts 269°
2026-05-07 05:27 51.22678 -33.78224 36132 ft 472 kts 269°
2026-05-07 05:27 51.21750 -33.88595 36122 ft 470 kts 269°
2026-05-07 05:28 51.20825 -33.98860 36129 ft 467 kts 268°
2026-05-07 05:28 51.19891 -34.09116 36141 ft 466 kts 268°
2026-05-07 05:29 51.18947 -34.19379 36138 ft 466 kts 268°
2026-05-07 05:29 51.17994 -34.29635 36111 ft 466 kts 268°
2026-05-07 05:30 51.17040 -34.39797 36143 ft 465 kts 268°
2026-05-07 05:30 51.16074 -34.50002 36147 ft 465 kts 268°
2026-05-07 05:31 51.15098 -34.60205 36159 ft 465 kts 268°
2026-05-07 05:31 51.14114 -34.70403 36159 ft 465 kts 268°
2026-05-07 05:32 51.13127 -34.80529 36127 ft 465 kts 268°
2026-05-07 05:32 51.12125 -34.90705 36160 ft 463 kts 268°
2026-05-07 05:33 51.11118 -35.00856 36165 ft 463 kts 268°
2026-05-07 05:33 51.10100 -35.11019 36169 ft 463 kts 268°
2026-05-07 05:34 51.09077 -35.21140 36166 ft 461 kts 268°
2026-05-07 05:34 51.08053 -35.31182 36174 ft 461 kts 268°
2026-05-07 05:35 51.07014 -35.41274 36175 ft 461 kts 268°
2026-05-07 05:35 51.05974 -35.51291 36182 ft 460 kts 267°
2026-05-07 05:36 51.04922 -35.61347 36180 ft 460 kts 267°
2026-05-07 05:36 51.03859 -35.71411 36189 ft 460 kts 267°
2026-05-07 05:37 51.02786 -35.81478 36189 ft 461 kts 267°
2026-05-07 05:37 51.01706 -35.91532 36197 ft 460 kts 267°
2026-05-07 05:38 51.00624 -36.01519 36197 ft 461 kts 267°
2026-05-07 05:38 50.99527 -36.11568 36202 ft 461 kts 267°
2026-05-07 05:39 50.98419 -36.21623 36204 ft 461 kts 267°
2026-05-07 05:39 50.97305 -36.31655 36178 ft 460 kts 266°
2026-05-07 05:40 50.96191 -36.41596 36200 ft 458 kts 266°
2026-05-07 05:40 50.95065 -36.51570 36208 ft 458 kts 266°
2026-05-07 05:41 50.93929 -36.61548 36209 ft 458 kts 266°
2026-05-07 05:41 50.92785 -36.71524 36215 ft 459 kts 266°
2026-05-07 05:42 50.91640 -36.81424 36189 ft 459 kts 266°
2026-05-07 05:42 50.90479 -36.91392 36214 ft 458 kts 266°
2026-05-07 05:43 50.89309 -37.01353 36222 ft 458 kts 266°
2026-05-07 05:43 50.88140 -37.11232 36227 ft 458 kts 266°
2026-05-07 05:44 50.86956 -37.21165 36229 ft 458 kts 266°
2026-05-07 05:44 50.85762 -37.31101 36204 ft 458 kts 265°
2026-05-07 05:45 50.84570 -37.40947 36225 ft 457 kts 265°
2026-05-07 05:45 50.83364 -37.50833 36229 ft 455 kts 265°
2026-05-07 05:46 50.82153 -37.60693 36230 ft 455 kts 265°
2026-05-07 05:46 50.80933 -37.70551 36237 ft 455 kts 265°
2026-05-07 05:47 50.79715 -37.80327 36242 ft 455 kts 265°
2026-05-07 05:47 50.78480 -37.90165 36231 ft 454 kts 265°
2026-05-07 05:48 50.77238 -37.99989 36243 ft 454 kts 265°
2026-05-07 05:48 50.75995 -38.09744 36235 ft 454 kts 265°
2026-05-07 05:49 50.74736 -38.19555 36246 ft 455 kts 265°
2026-05-07 05:49 50.73468 -38.29371 36245 ft 455 kts 265°
2026-05-07 05:50 50.72204 -38.39100 36241 ft 454 kts 264°
2026-05-07 05:50 50.70921 -38.48888 36244 ft 454 kts 264°
2026-05-07 05:51 50.69631 -38.58666 36246 ft 454 kts 264°
2026-05-07 05:51 50.68333 -38.68439 36251 ft 454 kts 264°
2026-05-07 05:52 50.67035 -38.78143 36252 ft 454 kts 264°
2026-05-07 05:52 50.65724 -38.87876 36246 ft 452 kts 264°
2026-05-07 05:53 50.64407 -38.97595 36248 ft 452 kts 264°
2026-05-07 05:53 50.63091 -39.07240 36254 ft 452 kts 264°
2026-05-07 05:54 50.61759 -39.16942 36253 ft 452 kts 264°
2026-05-07 05:54 50.60647 -39.24989 36252 ft 452 kts 264°
2026-05-07 05:55 50.59300 -39.34678 36242 ft 451 kts 264°
2026-05-07 05:55 50.57949 -39.44340 36252 ft 451 kts 264°
2026-05-07 05:56 50.56588 -39.54005 36255 ft 451 kts 264°
2026-05-07 05:56 50.55229 -39.63597 36254 ft 451 kts 263°
2026-05-07 05:57 50.53855 -39.73249 36245 ft 451 kts 263°
2026-05-07 05:57 50.52474 -39.82896 36236 ft 450 kts 263°
2026-05-07 05:58 50.51090 -39.92446 36255 ft 450 kts 263°
2026-05-07 05:58 50.49935 -40.02105 36258 ft 446 kts 268°
2026-05-07 05:59 50.49314 -40.11804 36256 ft 445 kts 270°
2026-05-07 05:59 50.48766 -40.21447 36249 ft 445 kts 270°
2026-05-07 06:00 50.48208 -40.31134 36231 ft 444 kts 270°
2026-05-07 06:00 50.47643 -40.40798 36247 ft 442 kts 270°
2026-05-07 06:01 50.47069 -40.50433 36252 ft 442 kts 270°
2026-05-07 06:01 50.46487 -40.60076 36249 ft 443 kts 270°
2026-05-07 06:02 50.45899 -40.69727 36249 ft 443 kts 269°
2026-05-07 06:02 50.45304 -40.79304 36251 ft 443 kts 269°
2026-05-07 06:03 50.44697 -40.88958 36256 ft 443 kts 269°
2026-05-07 06:03 50.44083 -40.98597 36252 ft 443 kts 269°
2026-05-07 06:04 50.43461 -41.08234 36246 ft 443 kts 269°
2026-05-07 06:04 50.42835 -41.17812 36245 ft 443 kts 269°
2026-05-07 06:05 50.42197 -41.27450 36249 ft 443 kts 269°
2026-05-07 06:05 50.41551 -41.37089 36249 ft 443 kts 269°
2026-05-07 06:06 50.40900 -41.46730 36232 ft 444 kts 268°
2026-05-07 06:06 50.40235 -41.56392 36241 ft 444 kts 268°
2026-05-07 06:07 50.39567 -41.65974 36243 ft 444 kts 268°
2026-05-07 06:07 50.38886 -41.75636 36243 ft 444 kts 268°
2026-05-07 06:08 50.38197 -41.85298 36238 ft 445 kts 268°
2026-05-07 06:08 50.37506 -41.94891 36218 ft 445 kts 268°
2026-05-07 06:09 50.36804 -42.04558 36233 ft 446 kts 268°
2026-05-07 06:09 50.36088 -42.14235 36237 ft 446 kts 268°
2026-05-07 06:10 50.35364 -42.23910 36241 ft 446 kts 267°
2026-05-07 06:10 50.34640 -42.33517 36235 ft 446 kts 267°
2026-05-07 06:11 50.33900 -42.43203 36238 ft 446 kts 267°
2026-05-07 06:11 50.33154 -42.52876 36231 ft 446 kts 267°
2026-05-07 06:12 50.32403 -42.62496 36231 ft 446 kts 266°
2026-05-07 06:12 50.31640 -42.72146 36235 ft 446 kts 266°
2026-05-07 06:13 50.30869 -42.81811 36238 ft 446 kts 266°
2026-05-07 06:13 50.30089 -42.91475 36240 ft 446 kts 266°
2026-05-07 06:14 50.29302 -43.01129 36236 ft 446 kts 266°
2026-05-07 06:14 50.28515 -43.10717 36229 ft 446 kts 266°
2026-05-07 06:15 50.27711 -43.20369 36243 ft 447 kts 266°
2026-05-07 06:15 50.26899 -43.30029 36245 ft 447 kts 266°
2026-05-07 06:16 50.26079 -43.39681 36233 ft 447 kts 266°
2026-05-07 06:16 50.25256 -43.49272 36235 ft 447 kts 266°
2026-05-07 06:17 50.24421 -43.58924 36232 ft 447 kts 265°
2026-05-07 06:17 50.23578 -43.68580 36244 ft 447 kts 265°
2026-05-07 06:18 50.22724 -43.78233 36245 ft 448 kts 265°
2026-05-07 06:18 50.21868 -43.87827 36243 ft 448 kts 265°
2026-05-07 06:19 50.20999 -43.97481 36242 ft 448 kts 265°
2026-05-07 06:19 50.20120 -44.07145 36240 ft 448 kts 265°
2026-05-07 06:20 50.19234 -44.16817 36233 ft 449 kts 265°
2026-05-07 06:20 50.18343 -44.26438 36240 ft 450 kts 264°
2026-05-07 06:21 50.17437 -44.36117 36242 ft 450 kts 264°
2026-05-07 06:21 50.16522 -44.45804 36243 ft 450 kts 264°
2026-05-07 06:22 50.15601 -44.55477 36243 ft 450 kts 264°
2026-05-07 06:22 50.14210 -44.69928 36237 ft 450 kts 264°
2026-05-07 06:23 50.13266 -44.79617 36238 ft 451 kts 264°
2026-05-07 06:23 50.12313 -44.89304 36239 ft 451 kts 264°
2026-05-07 06:24 50.11359 -44.98924 36242 ft 451 kts 264°
2026-05-07 06:24 50.10391 -45.08603 36247 ft 451 kts 264°
2026-05-07 06:25 50.09415 -45.18280 36244 ft 451 kts 264°
2026-05-07 06:25 50.08433 -45.27947 36242 ft 451 kts 263°
2026-05-07 06:26 50.07439 -45.37625 36246 ft 451 kts 263°
2026-05-07 06:26 50.06444 -45.47238 36246 ft 451 kts 263°
2026-05-07 06:27 50.05432 -45.56908 36245 ft 452 kts 264°
2026-05-07 06:27 50.04413 -45.66593 36246 ft 452 kts 263°
2026-05-07 06:28 50.03395 -45.76203 36232 ft 453 kts 263°
2026-05-07 06:28 50.02359 -45.85890 36243 ft 453 kts 263°
2026-05-07 06:29 50.01313 -45.95581 36243 ft 453 kts 263°
2026-05-07 06:29 50.00262 -46.05249 36242 ft 453 kts 263°
2026-05-07 06:30 49.99208 -46.14860 36243 ft 453 kts 263°
2026-05-07 06:30 49.98138 -46.24543 36246 ft 453 kts 263°
2026-05-07 06:31 49.97061 -46.34208 36243 ft 453 kts 263°
2026-05-07 06:31 49.95979 -46.43824 36245 ft 454 kts 263°
2026-05-07 06:32 49.94886 -46.53499 36249 ft 454 kts 263°
2026-05-07 06:32 49.93784 -46.63173 36243 ft 454 kts 263°
2026-05-07 06:33 49.92674 -46.72836 36247 ft 454 kts 263°
2026-05-07 06:33 49.91563 -46.82436 36243 ft 454 kts 263°
2026-05-07 06:34 49.90434 -46.92112 36245 ft 455 kts 263°
2026-05-07 06:34 49.89298 -47.01778 36258 ft 455 kts 263°
2026-05-07 06:35 49.88152 -47.11444 36259 ft 455 kts 263°
2026-05-07 06:35 49.87009 -47.21026 36254 ft 453 kts 263°
2026-05-07 06:36 49.85852 -47.30652 36248 ft 453 kts 263°
2026-05-07 06:36 49.84686 -47.40288 36250 ft 454 kts 263°
2026-05-07 06:37 49.83512 -47.49912 36251 ft 454 kts 263°
2026-05-07 06:37 49.82336 -47.59476 36251 ft 454 kts 262°
2026-05-07 06:38 49.81147 -47.69089 36251 ft 454 kts 262°
2026-05-07 06:38 49.79944 -47.78733 36249 ft 454 kts 262°
2026-05-07 06:39 49.78738 -47.88347 36245 ft 454 kts 262°
2026-05-07 06:39 49.77536 -47.97886 36249 ft 452 kts 262°
2026-05-07 06:40 49.76320 -48.07428 36250 ft 451 kts 262°
2026-05-07 06:40 49.75095 -48.16972 36248 ft 451 kts 261°
2026-05-07 06:41 49.73863 -48.26509 36248 ft 451 kts 261°
2026-05-07 06:41 49.72633 -48.35972 36251 ft 451 kts 261°
2026-05-07 06:42 49.71388 -48.45493 36243 ft 451 kts 261°
2026-05-07 06:42 49.70345 -48.53416 36248 ft 451 kts 261°
2026-05-07 06:43 49.68877 -48.64484 36249 ft 451 kts 261°
2026-05-07 06:43 49.67815 -48.72450 36240 ft 451 kts 261°
2026-05-07 06:44 49.66553 -48.81869 36243 ft 449 kts 261°
2026-05-07 06:44 49.65275 -48.91316 36240 ft 449 kts 260°
2026-05-07 06:45 49.63990 -49.00760 36244 ft 449 kts 260°
2026-05-07 06:45 49.62696 -49.10212 36240 ft 449 kts 260°
2026-05-07 06:46 49.61404 -49.19586 36241 ft 449 kts 260°
2026-05-07 06:46 49.60096 -49.29017 36240 ft 448 kts 260°
2026-05-07 06:47 49.58779 -49.38460 36237 ft 449 kts 260°
2026-05-07 06:47 49.57468 -49.47810 36236 ft 448 kts 260°
2026-05-07 06:48 49.56143 -49.57203 36240 ft 446 kts 259°
2026-05-07 06:48 49.54813 -49.66549 36237 ft 446 kts 259°
2026-05-07 06:49 49.53476 -49.75897 36237 ft 445 kts 259°
2026-05-07 06:49 49.52133 -49.85230 36237 ft 445 kts 259°
2026-05-07 06:50 49.50789 -49.94501 36235 ft 445 kts 258°
2026-05-07 06:50 49.49080 -50.03696 36236 ft 447 kts 252°
2026-05-07 06:51 49.46935 -50.12702 36237 ft 447 kts 251°
2026-05-07 06:51 49.44784 -50.21634 36237 ft 447 kts 251°
2026-05-07 06:52 49.42611 -50.30621 36240 ft 447 kts 251°
2026-05-07 06:52 49.40438 -50.39587 36232 ft 445 kts 251°
2026-05-07 06:53 49.38269 -50.48488 36237 ft 444 kts 251°
2026-05-07 06:53 49.36110 -50.57302 36237 ft 444 kts 251°
2026-05-07 06:54 49.33928 -50.66177 36237 ft 444 kts 250°
2026-05-07 06:54 49.31737 -50.75058 36232 ft 444 kts 250°
2026-05-07 06:55 49.29557 -50.83864 36227 ft 443 kts 250°
2026-05-07 06:55 49.27357 -50.92717 36233 ft 443 kts 250°
2026-05-07 06:56 49.25152 -51.01546 36235 ft 443 kts 250°
2026-05-07 06:56 49.22954 -51.10317 36235 ft 443 kts 250°
2026-05-07 06:57 49.20735 -51.19140 36229 ft 443 kts 250°
2026-05-07 06:57 49.18510 -51.27949 36226 ft 443 kts 250°
2026-05-07 06:58 49.16279 -51.36748 36226 ft 443 kts 250°
2026-05-07 06:58 49.14057 -51.45481 36226 ft 443 kts 250°
2026-05-07 06:59 49.11812 -51.54267 36221 ft 443 kts 250°
2026-05-07 06:59 49.09559 -51.63051 36221 ft 443 kts 250°
2026-05-07 07:00 49.07305 -51.71812 36221 ft 443 kts 250°
2026-05-07 07:00 49.05054 -51.80526 36228 ft 443 kts 249°
2026-05-07 07:01 49.02783 -51.89283 36224 ft 443 kts 249°
2026-05-07 07:01 49.00503 -51.98035 36224 ft 443 kts 249°
2026-05-07 07:02 48.98191 -52.06771 36227 ft 443 kts 249°
2026-05-07 07:02 48.95855 -52.15479 36223 ft 443 kts 249°
2026-05-07 07:03 48.93527 -52.24133 36230 ft 443 kts 249°
2026-05-07 07:03 48.91190 -52.32805 36222 ft 442 kts 248°
2026-05-07 07:04 48.88848 -52.41458 36225 ft 441 kts 248°
2026-05-07 07:04 48.86502 -52.50100 36224 ft 441 kts 248°
2026-05-07 07:05 48.84150 -52.58733 36220 ft 441 kts 248°
2026-05-07 07:05 48.81808 -52.67296 36212 ft 441 kts 248°
2026-05-07 07:06 48.79445 -52.75904 36218 ft 441 kts 248°
2026-05-07 07:06 48.77076 -52.84506 36218 ft 441 kts 248°
2026-05-07 07:07 48.74699 -52.93103 36218 ft 441 kts 248°
2026-05-07 07:07 48.72326 -53.01658 36218 ft 440 kts 248°
2026-05-07 07:08 48.69958 -53.10160 36210 ft 439 kts 248°
2026-05-07 07:08 48.67567 -53.18715 36210 ft 439 kts 248°
2026-05-07 07:09 48.65202 -53.27154 36220 ft 434 kts 248°
2026-05-07 07:09 48.62835 -53.35560 36215 ft 433 kts 247°
2026-05-07 07:10 48.60471 -53.43924 36207 ft 431 kts 248°
2026-05-07 07:10 48.58106 -53.52268 36208 ft 431 kts 248°
2026-05-07 07:11 48.55752 -53.60548 36207 ft 431 kts 247°
2026-05-07 07:11 48.53376 -53.68872 36207 ft 431 kts 247°
2026-05-07 07:12 48.50995 -53.77187 36206 ft 431 kts 247°
2026-05-07 07:12 48.48613 -53.85478 36199 ft 429 kts 247°
2026-05-07 07:13 48.46242 -53.93699 36200 ft 429 kts 247°
2026-05-07 07:13 48.43847 -54.01974 36208 ft 429 kts 247°
2026-05-07 07:14 48.41451 -54.10227 36207 ft 429 kts 247°
2026-05-07 07:14 48.39070 -54.18413 36211 ft 426 kts 246°
2026-05-07 07:15 48.36691 -54.26560 36204 ft 423 kts 246°
2026-05-07 07:15 48.34310 -54.34670 36211 ft 423 kts 246°
2026-05-07 07:16 48.31920 -54.42783 36207 ft 423 kts 246°
2026-05-07 07:16 48.29527 -54.50887 36213 ft 423 kts 246°
2026-05-07 07:17 48.27131 -54.58974 36202 ft 423 kts 246°
2026-05-07 07:17 48.24748 -54.66996 36210 ft 422 kts 245°
2026-05-07 07:18 48.22345 -54.75055 36210 ft 422 kts 245°
2026-05-07 07:18 48.19934 -54.83112 36204 ft 422 kts 245°
2026-05-07 07:19 48.17521 -54.91152 36180 ft 422 kts 245°
2026-05-07 07:19 48.15119 -54.99129 36167 ft 422 kts 245°
2026-05-07 07:20 48.12698 -55.07152 36185 ft 422 kts 244°
2026-05-07 07:20 48.10275 -55.15160 36175 ft 421 kts 244°
2026-05-07 07:21 48.07842 -55.23152 36169 ft 421 kts 244°
2026-05-07 07:21 48.05405 -55.31133 36146 ft 421 kts 244°
2026-05-07 07:22 48.02980 -55.39057 36150 ft 421 kts 244°
2026-05-07 07:22 48.00531 -55.47031 36144 ft 421 kts 244°
2026-05-07 07:23 47.98078 -55.54996 36145 ft 421 kts 244°
2026-05-07 07:23 47.95638 -55.62893 36136 ft 421 kts 244°
2026-05-07 07:24 47.93173 -55.70848 36137 ft 421 kts 244°
2026-05-07 07:24 47.90707 -55.78782 36124 ft 421 kts 244°
2026-05-07 07:25 47.86996 -55.90671 36131 ft 421 kts 243°
2026-05-07 07:26 47.84529 -55.98553 36140 ft 420 kts 243°
2026-05-07 07:26 47.82053 -56.06431 36126 ft 419 kts 243°
2026-05-07 07:27 47.79570 -56.14296 36118 ft 419 kts 243°
2026-05-07 07:27 47.77094 -56.22120 36113 ft 421 kts 243°
2026-05-07 07:28 47.74587 -56.30016 36122 ft 422 kts 243°
2026-05-07 07:28 47.72073 -56.37915 36127 ft 422 kts 243°
2026-05-07 07:29 47.69552 -56.45809 36136 ft 422 kts 242°
2026-05-07 07:29 47.67046 -56.53634 36138 ft 422 kts 242°
2026-05-07 07:30 47.64507 -56.61533 36140 ft 424 kts 242°
2026-05-07 07:30 47.61955 -56.69450 36151 ft 425 kts 242°
2026-05-07 07:31 47.59395 -56.77372 36164 ft 425 kts 242°
2026-05-07 07:31 47.57262 -56.83949 36186 ft 425 kts 242°
2026-05-07 07:32 47.54703 -56.91834 36170 ft 423 kts 242°
2026-05-07 07:32 47.52139 -56.99692 36169 ft 423 kts 242°
2026-05-07 07:33 47.49592 -57.07473 36176 ft 423 kts 242°
2026-05-07 07:33 47.47024 -57.15298 36175 ft 422 kts 242°
2026-05-07 07:34 47.44450 -57.23118 36170 ft 422 kts 242°
2026-05-07 07:34 47.41868 -57.30936 36173 ft 422 kts 242°
2026-05-07 07:35 47.39290 -57.38724 36165 ft 420 kts 241°
2026-05-07 07:35 47.36712 -57.46486 36154 ft 420 kts 241°
2026-05-07 07:36 47.34147 -57.54185 36155 ft 420 kts 241°
2026-05-07 07:36 47.31559 -57.61929 36148 ft 420 kts 241°
2026-05-07 07:37 47.28964 -57.69670 36194 ft 419 kts 241°
2026-05-07 07:37 47.26394 -57.77322 36140 ft 414 kts 241°
2026-05-07 07:38 47.23830 -57.84926 36135 ft 414 kts 241°
2026-05-07 07:38 47.21279 -57.92469 36133 ft 414 kts 241°
2026-05-07 07:39 47.18705 -58.00058 36140 ft 414 kts 241°
2026-05-07 07:39 47.16143 -58.07591 36126 ft 413 kts 241°
2026-05-07 07:40 47.13567 -58.15145 36125 ft 412 kts 241°
2026-05-07 07:40 47.10987 -58.22688 36120 ft 412 kts 241°
2026-05-07 07:41 47.08406 -58.30212 36124 ft 412 kts 241°
2026-05-07 07:41 47.05834 -58.37687 36101 ft 412 kts 241°
2026-05-07 07:42 47.03242 -58.45200 36114 ft 411 kts 240°
2026-05-07 07:42 47.00654 -58.52682 36100 ft 410 kts 240°
2026-05-07 07:43 46.98092 -58.60071 36113 ft 406 kts 240°
2026-05-07 07:43 46.95522 -58.67454 36096 ft 406 kts 240°
2026-05-07 07:44 46.92948 -58.74829 36083 ft 406 kts 240°
2026-05-07 07:44 46.90372 -58.82187 36076 ft 406 kts 240°
2026-05-07 07:45 46.87795 -58.89531 36075 ft 405 kts 240°
2026-05-07 07:45 46.85230 -58.96820 36076 ft 405 kts 240°
2026-05-07 07:46 46.82644 -59.04152 36065 ft 405 kts 240°
2026-05-07 07:46 46.80049 -59.11485 36054 ft 405 kts 240°
2026-05-07 07:47 46.77470 -59.18755 36060 ft 405 kts 240°
2026-05-07 07:47 46.74866 -59.26072 36049 ft 405 kts 240°
2026-05-07 07:48 46.72260 -59.33378 36049 ft 405 kts 240°
2026-05-07 07:48 46.69653 -59.40675 36047 ft 404 kts 239°
2026-05-07 07:49 46.67050 -59.47931 36042 ft 403 kts 239°
2026-05-07 07:49 46.64442 -59.55176 36025 ft 404 kts 239°
2026-05-07 07:50 46.61839 -59.62392 36028 ft 405 kts 239°
2026-05-07 07:50 46.59211 -59.69658 36018 ft 405 kts 239°
2026-05-07 07:51 46.56580 -59.76911 36016 ft 405 kts 239°
2026-05-07 07:51 46.53963 -59.84109 36017 ft 404 kts 239°
2026-05-07 07:52 46.51318 -59.91362 36009 ft 406 kts 239°
2026-05-07 07:52 46.48665 -59.98619 36013 ft 407 kts 239°
2026-05-07 07:53 46.46018 -60.05839 36002 ft 407 kts 239°
2026-05-07 07:53 46.43353 -60.13090 36003 ft 407 kts 239°
2026-05-07 07:54 46.40684 -60.20333 36006 ft 407 kts 239°
2026-05-07 07:54 46.38021 -60.27540 36007 ft 409 kts 239°
2026-05-07 07:55 46.35316 -60.34839 35998 ft 410 kts 239°
2026-05-07 07:55 46.32609 -60.42124 35995 ft 410 kts 239°
2026-05-07 07:56 46.29912 -60.49363 35981 ft 410 kts 239°
2026-05-07 07:56 46.27194 -60.56640 35980 ft 410 kts 239°
2026-05-07 07:57 46.24462 -60.63928 35980 ft 412 kts 239°
2026-05-07 07:57 46.21740 -60.71178 35978 ft 412 kts 239°
2026-05-07 07:58 46.18998 -60.78462 35978 ft 412 kts 239°
2026-05-07 07:58 46.16250 -60.85742 35980 ft 412 kts 239°
2026-05-07 07:59 46.13515 -60.92966 35976 ft 412 kts 239°
2026-05-07 07:59 46.10752 -61.00226 35968 ft 412 kts 239°
2026-05-07 08:00 46.07998 -61.07471 35967 ft 411 kts 239°
2026-05-07 08:00 46.05239 -61.14706 35969 ft 411 kts 239°
2026-05-07 08:01 46.02491 -61.21891 35973 ft 411 kts 239°
2026-05-07 08:01 45.99719 -61.29114 35951 ft 411 kts 239°
2026-05-07 08:02 45.96944 -61.36326 35953 ft 411 kts 239°
2026-05-07 08:02 45.94172 -61.43515 35954 ft 410 kts 239°
2026-05-07 08:03 45.91414 -61.50650 35960 ft 410 kts 239°
2026-05-07 08:03 45.88634 -61.57821 35960 ft 410 kts 239°
2026-05-07 08:04 45.85850 -61.64976 35945 ft 409 kts 240°
2026-05-07 08:04 45.83066 -61.72120 35947 ft 409 kts 240°
2026-05-07 08:05 45.80302 -61.79201 35961 ft 407 kts 239°
2026-05-07 08:05 45.77523 -61.86297 35947 ft 407 kts 239°
2026-05-07 08:06 45.74744 -61.93372 35929 ft 407 kts 239°
2026-05-07 08:06 45.71961 -62.00423 35925 ft 405 kts 240°
2026-05-07 08:07 45.69205 -62.07411 35932 ft 405 kts 240°
2026-05-07 08:07 45.66431 -62.14426 35932 ft 404 kts 240°
2026-05-07 08:08 45.63646 -62.21448 35923 ft 405 kts 240°
2026-05-07 08:08 45.60861 -62.28450 35923 ft 405 kts 240°
2026-05-07 08:09 45.58090 -62.35395 35922 ft 404 kts 240°
2026-05-07 08:09 45.55301 -62.42374 35921 ft 404 kts 240°
2026-05-07 08:10 45.52505 -62.49351 35921 ft 404 kts 240°
2026-05-07 08:10 45.49706 -62.56314 35913 ft 404 kts 240°
2026-05-07 08:11 45.46915 -62.63244 35911 ft 404 kts 240°
2026-05-07 08:11 45.44107 -62.70201 35910 ft 404 kts 240°
2026-05-07 08:12 45.41296 -62.77146 35908 ft 404 kts 240°
2026-05-07 08:12 45.38480 -62.84085 35896 ft 404 kts 240°
2026-05-07 08:13 45.35659 -62.91021 35899 ft 404 kts 240°
2026-05-07 08:13 45.32852 -62.97892 35896 ft 403 kts 240°
2026-05-07 08:14 45.30032 -63.04790 35900 ft 402 kts 240°
2026-05-07 08:14 45.27210 -63.11680 35890 ft 402 kts 240°
2026-05-07 08:15 45.24403 -63.18514 35890 ft 402 kts 240°
2026-05-07 08:15 45.21570 -63.25395 35915 ft 402 kts 240°
2026-05-07 08:16 45.18741 -63.32246 35898 ft 400 kts 240°
2026-05-07 08:16 45.15920 -63.39060 35892 ft 400 kts 240°
2026-05-07 08:17 45.13099 -63.45862 35886 ft 400 kts 240°
2026-05-07 08:17 45.10270 -63.52664 35886 ft 400 kts 240°
2026-05-07 08:18 45.07453 -63.59422 35876 ft 399 kts 240°
2026-05-07 08:18 45.04623 -63.66185 35878 ft 398 kts 240°
2026-05-07 08:19 45.01794 -63.72943 35862 ft 398 kts 240°
2026-05-07 08:19 44.98986 -63.79633 35863 ft 398 kts 240°
2026-05-07 08:20 44.96151 -63.86368 35864 ft 398 kts 240°
2026-05-07 08:20 44.93313 -63.93089 35837 ft 397 kts 241°
2026-05-07 08:21 44.90485 -63.99767 35886 ft 395 kts 241°
2026-05-07 08:21 44.87677 -64.06401 35859 ft 395 kts 241°
2026-05-07 08:22 44.85308 -64.11980 35856 ft 395 kts 241°
2026-05-07 08:22 44.82494 -64.18594 35848 ft 395 kts 241°
2026-05-07 08:23 44.79653 -64.25246 35837 ft 394 kts 241°
2026-05-07 08:23 44.76825 -64.31855 35830 ft 392 kts 242°
2026-05-07 08:24 44.74022 -64.38399 35837 ft 392 kts 242°
2026-05-07 08:24 44.71197 -64.44973 35835 ft 392 kts 241°
2026-05-07 08:25 44.68366 -64.51548 35839 ft 392 kts 241°
2026-05-07 08:25 44.65532 -64.58100 35816 ft 390 kts 242°
2026-05-07 08:26 44.61333 -64.67805 35833 ft 388 kts 242°
2026-05-07 08:26 44.58515 -64.74304 35851 ft 388 kts 242°
2026-05-07 08:27 44.55693 -64.80790 35835 ft 388 kts 242°
2026-05-07 08:27 44.52886 -64.87221 35809 ft 387 kts 242°
2026-05-07 08:28 44.50078 -64.93640 35820 ft 384 kts 242°
2026-05-07 08:28 44.47279 -65.00034 35828 ft 384 kts 242°
2026-05-07 08:29 44.44476 -65.06421 35831 ft 384 kts 242°
2026-05-07 08:29 44.41690 -65.12754 35822 ft 384 kts 242°
2026-05-07 08:30 44.38880 -65.19117 35815 ft 382 kts 242°
2026-05-07 08:30 44.36087 -65.25434 35823 ft 380 kts 242°
2026-05-07 08:31 44.33300 -65.31733 35825 ft 380 kts 242°
2026-05-07 08:31 44.30526 -65.37984 35829 ft 380 kts 242°
2026-05-07 08:32 44.27728 -65.44275 35836 ft 380 kts 242°
2026-05-07 08:32 44.24931 -65.50542 35820 ft 378 kts 242°
2026-05-07 08:33 44.22146 -65.56775 35825 ft 377 kts 242°
2026-05-07 08:33 44.19361 -65.62997 35820 ft 377 kts 242°
2026-05-07 08:34 44.16591 -65.69170 35809 ft 377 kts 242°
2026-05-07 08:34 44.13798 -65.75381 35812 ft 377 kts 242°
2026-05-07 08:35 44.11001 -65.81588 35811 ft 377 kts 242°
2026-05-07 08:35 44.08201 -65.87787 35813 ft 377 kts 242°
2026-05-07 08:36 44.05402 -65.93971 35814 ft 377 kts 242°
2026-05-07 08:36 44.02620 -66.00106 35808 ft 377 kts 242°
2026-05-07 08:37 43.99810 -66.06288 35808 ft 377 kts 242°
2026-05-07 08:37 43.97007 -66.12433 35821 ft 374 kts 242°
2026-05-07 08:38 43.94225 -66.18531 35813 ft 373 kts 242°
2026-05-07 08:38 43.91462 -66.24573 35810 ft 373 kts 242°
2026-05-07 08:39 43.88675 -66.30653 35810 ft 372 kts 242°
2026-05-07 08:39 43.85888 -66.36723 35776 ft 372 kts 242°
2026-05-07 08:40 43.83107 -66.42756 35803 ft 369 kts 243°
2026-05-07 08:40 43.80353 -66.48732 35802 ft 369 kts 243°
2026-05-07 08:41 43.77578 -66.54738 35807 ft 369 kts 243°
2026-05-07 08:41 43.74798 -66.60744 35806 ft 369 kts 243°
2026-05-07 08:42 43.72036 -66.66696 35771 ft 369 kts 243°
2026-05-07 08:42 43.69268 -66.72642 35804 ft 366 kts 243°
2026-05-07 08:43 43.66505 -66.78584 35829 ft 366 kts 243°
2026-05-07 08:43 43.63739 -66.84513 35815 ft 366 kts 243°
2026-05-07 08:44 43.60988 -66.90398 35814 ft 366 kts 243°
2026-05-07 08:44 43.58213 -66.96315 35784 ft 366 kts 243°
2026-05-07 08:45 43.55553 -67.02253 35804 ft 362 kts 245°
2026-05-07 08:45 43.53027 -67.08265 35808 ft 361 kts 245°
2026-05-07 08:46 43.50497 -67.14262 35812 ft 361 kts 245°
2026-05-07 08:46 43.47985 -67.20216 35811 ft 361 kts 245°
2026-05-07 08:47 43.45456 -67.26203 35797 ft 361 kts 245°
2026-05-07 08:47 43.42930 -67.32171 35805 ft 359 kts 245°
2026-05-07 08:48 43.40409 -67.38124 35803 ft 359 kts 245°
2026-05-07 08:48 43.37890 -67.44058 35812 ft 359 kts 245°
2026-05-07 08:49 43.35386 -67.49949 35812 ft 359 kts 245°
2026-05-07 08:49 43.32857 -67.55882 35806 ft 359 kts 245°
2026-05-07 08:50 43.30333 -67.61781 35798 ft 356 kts 246°
2026-05-07 08:50 43.27840 -67.67612 35808 ft 355 kts 246°
2026-05-07 08:51 43.25326 -67.73477 35807 ft 355 kts 246°
2026-05-07 08:51 43.22812 -67.79332 35809 ft 355 kts 246°
2026-05-07 08:52 43.20313 -67.85140 35809 ft 355 kts 246°
2026-05-07 08:52 43.17793 -67.90971 35799 ft 354 kts 246°
2026-05-07 08:53 43.15286 -67.96775 35834 ft 353 kts 246°
2026-05-07 08:53 43.12788 -68.02552 35820 ft 351 kts 246°
2026-05-07 08:54 43.10290 -68.08311 35816 ft 351 kts 246°
2026-05-07 08:54 43.07809 -68.14017 35814 ft 351 kts 246°
2026-05-07 08:55 43.05306 -68.19757 35794 ft 350 kts 246°
2026-05-07 08:55 43.02808 -68.25480 35811 ft 349 kts 246°
2026-05-07 08:56 43.00330 -68.31150 35813 ft 349 kts 246°
2026-05-07 08:56 42.97832 -68.36854 35814 ft 349 kts 246°
2026-05-07 08:57 42.95328 -68.42558 35817 ft 349 kts 246°
2026-05-07 08:57 42.92824 -68.48251 35806 ft 349 kts 246°
2026-05-07 08:58 42.90331 -68.53904 35824 ft 349 kts 246°
2026-05-07 08:58 42.87837 -68.59556 35815 ft 346 kts 246°
2026-05-07 08:59 42.85344 -68.65192 35811 ft 346 kts 246°
2026-05-07 08:59 42.82847 -68.70825 35812 ft 346 kts 246°
2026-05-07 09:00 42.80350 -68.76447 35817 ft 346 kts 246°
2026-05-07 09:00 42.77869 -68.82024 35817 ft 346 kts 246°
2026-05-07 09:01 42.75366 -68.87643 35836 ft 346 kts 246°
2026-05-07 09:01 42.72873 -68.93225 35816 ft 345 kts 245°
2026-05-07 09:02 42.70372 -68.98813 35817 ft 345 kts 245°
2026-05-07 09:02 42.67891 -69.04344 35814 ft 345 kts 245°
2026-05-07 09:03 42.65388 -69.09912 35801 ft 345 kts 246°
2026-05-07 09:03 42.62878 -69.15491 35813 ft 345 kts 246°
2026-05-07 09:04 42.60370 -69.21058 35839 ft 344 kts 245°
2026-05-07 09:04 42.57886 -69.26560 35822 ft 343 kts 245°
2026-05-07 09:05 42.55384 -69.32086 35817 ft 343 kts 245°
2026-05-07 09:05 42.52881 -69.37607 35816 ft 343 kts 245°
2026-05-07 09:06 42.50368 -69.43131 35802 ft 344 kts 246°
2026-05-07 09:06 42.47852 -69.48665 35813 ft 344 kts 246°
2026-05-07 09:07 42.45346 -69.54166 35841 ft 344 kts 245°
2026-05-07 09:07 42.42830 -69.59677 35827 ft 343 kts 245°
2026-05-07 09:08 42.40312 -69.65178 35819 ft 343 kts 245°
2026-05-07 09:08 42.37788 -69.70675 35784 ft 344 kts 245°
2026-05-07 09:09 42.35260 -69.76180 35814 ft 344 kts 245°
2026-05-07 09:09 42.32743 -69.81653 35817 ft 344 kts 245°
2026-05-07 09:10 42.30206 -69.87160 35840 ft 344 kts 245°
2026-05-07 09:10 42.28104 -69.91718 35827 ft 343 kts 245°
2026-05-07 09:11 42.25573 -69.97187 35814 ft 342 kts 245°
2026-05-07 09:11 42.23038 -70.02655 35798 ft 344 kts 245°
2026-05-07 09:12 42.20508 -70.08108 35806 ft 344 kts 245°
2026-05-07 09:12 42.17964 -70.13582 35834 ft 344 kts 245°
2026-05-07 09:13 42.15413 -70.19062 35839 ft 344 kts 245°
2026-05-07 09:13 42.12866 -70.24530 35845 ft 344 kts 245°
2026-05-07 09:14 42.10327 -70.29961 35807 ft 344 kts 245°
2026-05-07 09:14 42.07764 -70.35428 35810 ft 345 kts 245°
2026-05-07 09:15 42.05299 -70.40968 35821 ft 343 kts 248°
2026-05-07 09:15 42.03163 -70.46705 35823 ft 341 kts 251°
2026-05-07 09:16 42.01309 -70.52512 35826 ft 339 kts 252°
2026-05-07 09:16 41.99458 -70.58334 35840 ft 336 kts 252°
2026-05-07 09:17 41.97621 -70.64130 35833 ft 336 kts 252°
2026-05-07 09:17 41.95783 -70.69929 35811 ft 337 kts 252°
2026-05-07 09:18 41.93955 -70.75708 35823 ft 337 kts 252°
2026-05-07 09:18 41.92114 -70.81516 35831 ft 337 kts 252°
2026-05-07 09:19 41.90271 -70.87321 35826 ft 337 kts 252°
2026-05-07 09:19 41.88429 -70.93116 35872 ft 335 kts 252°
2026-05-07 09:20 41.86590 -70.98884 35860 ft 335 kts 252°
2026-05-07 09:20 41.84764 -71.04602 35856 ft 335 kts 252°
2026-05-07 09:21 41.82916 -71.10373 35828 ft 336 kts 252°
2026-05-07 09:21 41.81064 -71.16156 35854 ft 337 kts 252°
2026-05-07 09:22 41.79222 -71.21896 35848 ft 336 kts 252°
2026-05-07 09:22 41.77362 -71.27668 35854 ft 336 kts 252°
2026-05-07 09:23 41.75407 -71.33377 35864 ft 337 kts 249°
2026-05-07 09:23 41.73022 -71.38796 35866 ft 342 kts 244°
2026-05-07 09:24 41.70165 -71.43958 35830 ft 347 kts 240°
2026-05-07 09:24 41.66837 -71.48770 35863 ft 355 kts 235°
2026-05-07 09:25 41.63089 -71.53176 35838 ft 360 kts 232°
2026-05-07 09:25 41.59290 -71.57492 35851 ft 359 kts 232°
2026-05-07 09:26 41.55469 -71.61788 35847 ft 358 kts 232°
2026-05-07 09:26 41.51638 -71.66066 35822 ft 359 kts 232°
2026-05-07 09:27 41.47814 -71.70325 35855 ft 360 kts 232°
2026-05-07 09:28 41.42025 -71.76752 35866 ft 360 kts 232°
2026-05-07 09:28 41.38194 -71.80994 35867 ft 360 kts 232°
2026-05-07 09:29 41.34333 -71.85264 35865 ft 360 kts 232°
2026-05-07 09:29 41.30469 -71.89528 35865 ft 360 kts 232°
2026-05-07 09:30 41.26602 -71.93783 35863 ft 359 kts 232°
2026-05-07 09:30 41.22776 -71.97981 35859 ft 358 kts 232°
2026-05-07 09:31 41.18931 -72.02199 35885 ft 358 kts 232°
2026-05-07 09:31 41.15065 -72.06432 35869 ft 360 kts 232°
2026-05-07 09:32 41.11476 -72.10900 35881 ft 350 kts 241°
2026-05-07 09:32 41.09045 -72.16369 35883 ft 340 kts 252°
2026-05-07 09:33 41.07487 -72.22239 35874 ft 334 kts 255°
2026-05-07 09:33 41.05995 -72.28036 35894 ft 333 kts 255°
2026-05-07 09:34 41.04521 -72.33850 35872 ft 332 kts 255°
2026-05-07 09:34 41.03060 -72.39657 35860 ft 332 kts 255°
2026-05-07 09:35 41.01600 -72.45483 35872 ft 332 kts 255°
2026-05-07 09:35 41.00151 -72.51264 35888 ft 332 kts 255°
2026-05-07 09:36 40.98693 -72.57078 35891 ft 332 kts 255°
2026-05-07 09:36 40.97231 -72.62903 35909 ft 331 kts 255°
2026-05-07 09:37 40.95776 -72.68680 35896 ft 330 kts 255°
2026-05-07 09:37 40.94314 -72.74461 35894 ft 330 kts 255°
2026-05-07 09:38 40.92142 -72.79812 35880 ft 339 kts 239°
2026-05-07 09:38 40.90431 -72.81986 35876 ft 353 kts 230°
2026-05-07 09:38 40.88442 -72.83951 35857 ft 358 kts 230°
2026-05-07 09:39 40.84436 -72.87942 35878 ft 361 kts 230°
2026-05-07 09:39 40.80388 -72.91889 35880 ft 362 kts 229°
2026-05-07 09:40 40.76319 -72.95809 35920 ft 361 kts 229°
2026-05-07 09:40 40.72288 -72.99667 35894 ft 359 kts 229°
2026-05-07 09:41 40.68783 -73.04094 35854 ft 340 kts 251°
2026-05-07 09:41 40.68335 -73.07132 35898 ft 341 kts 268°
2026-05-07 09:41 40.68405 -73.10242 35905 ft 335 kts 269°
2026-05-07 09:42 40.68531 -73.16303 35903 ft 331 kts 268°
2026-05-07 09:42 40.68602 -73.22371 35900 ft 330 kts 268°
2026-05-07 09:43 40.68643 -73.28439 35900 ft 330 kts 268°
2026-05-07 09:43 40.68672 -73.34512 35909 ft 330 kts 268°
2026-05-07 09:44 40.68678 -73.40532 35906 ft 330 kts 267°
2026-05-07 09:44 40.68681 -73.46593 35898 ft 330 kts 267°
2026-05-07 09:45 40.68683 -73.52661 35905 ft 330 kts 267°
2026-05-07 09:45 40.68683 -73.58743 35905 ft 330 kts 267°
2026-05-07 09:46 40.68681 -73.64759 35914 ft 330 kts 267°
2026-05-07 09:46 40.68439 -73.70752 35880 ft 321 kts 257°
2026-05-07 09:46 40.67929 -73.72611 35679 ft 315 kts 248°
2026-05-07 09:47 40.66684 -73.74986 35211 ft 314 kts 236°
2026-05-07 09:47 40.64928 -73.76757 34566 ft 327 kts 222°
2026-05-07 09:47 40.62715 -73.77815 33797 ft 352 kts 208°
2026-05-07 09:47 40.51959 -73.73960 30438 ft 393 kts 185°
2026-05-07 09:48 40.39774 -73.62457 26501 ft 442 kts 138°
2026-05-07 09:48 40.37010 -73.44964 23455 ft 461 kts 62°
2026-05-07 09:48 40.38599 -73.41357 22692 ft 452 kts 51°
2026-05-07 09:48 40.40402 -73.38016 22037 ft 443 kts 49°
2026-05-07 09:49 40.42202 -73.34826 21396 ft 436 kts 48°
2026-05-07 09:49 40.43967 -73.31579 20599 ft 438 kts 58°
2026-05-07 09:49 40.45109 -73.27853 19585 ft 442 kts 80°
2026-05-07 09:49 40.45338 -73.23823 18749 ft 452 kts 101°
2026-05-07 09:50 40.44580 -73.19766 18198 ft 459 kts 121°
2026-05-07 09:50 40.42944 -73.16243 17898 ft 444 kts 141°
2026-05-07 09:50 40.40699 -73.13557 17905 ft 432 kts 152°
2026-05-07 09:50 40.38280 -73.11210 17904 ft 431 kts 154°
2026-05-07 09:51 40.35830 -73.08956 17890 ft 427 kts 158°
2026-05-07 09:51 40.27515 -73.07155 17871 ft 369 kts 206°
2026-05-07 09:51 40.21976 -73.17379 17898 ft 353 kts 270°
2026-05-07 09:51 40.25656 -73.26788 14857 ft 360 kts 300°
2026-05-07 09:52 40.30274 -73.32653 11670 ft 377 kts 327°
2026-05-07 09:52 40.32667 -73.34062 10396 ft 371 kts 323°
2026-05-07 09:52 40.34825 -73.35863 9092 ft 365 kts 319°
2026-05-07 09:52 40.36877 -73.37780 7983 ft 357 kts 317°
2026-05-07 09:53 40.38840 -73.39683 6935 ft 350 kts 317°
2026-05-07 09:53 40.40774 -73.41606 5823 ft 345 kts 317°
2026-05-07 09:53 40.42640 -73.43515 4803 ft 335 kts 317°
2026-05-07 09:53 40.44424 -73.45397 3944 ft 322 kts 318°
2026-05-07 09:54 40.46099 -73.47252 3279 ft 307 kts 318°
2026-05-07 09:54 40.47657 -73.49065 2637 ft 294 kts 318°
2026-05-07 09:54 40.49122 -73.50850 2135 ft 279 kts 317°
2026-05-07 09:54 40.50473 -73.52534 2005 ft 255 kts 317°
2026-05-07 09:55 40.51741 -73.54044 2093 ft 241 kts 319°
2026-05-07 09:55 40.52882 -73.55640 2029 ft 240 kts 310°
2026-05-07 09:55 40.53854 -73.57445 2015 ft 242 kts 306°
2026-05-07 09:55 40.55478 -73.60915 2009 ft 242 kts 303°
2026-05-07 09:56 40.56309 -73.62775 1907 ft 225 kts 303°
2026-05-07 09:56 40.57056 -73.64451 1868 ft 202 kts 303°
2026-05-07 09:56 40.57712 -73.65919 1861 ft 173 kts 304°
2026-05-07 09:56 40.58277 -73.67178 1825 ft 150 kts 304°
2026-05-07 09:57 40.58795 -73.68325 1800 ft 143 kts 304°
2026-05-07 09:57 40.59300 -73.69437 1602 ft 140 kts 305°
2026-05-07 09:57 40.59796 -73.70529 1398 ft 139 kts 304°
2026-05-07 09:57 40.60290 -73.71620 1198 ft 138 kts 306°
2026-05-07 09:58 40.60783 -73.72705 1017 ft 138 kts 305°
2026-05-07 09:58 40.61267 -73.73786 920 ft 138 kts 303°
2026-05-07 09:58 40.61747 -73.74880 655 ft 138 kts 303°
2026-05-07 09:58 40.62239 -73.75952 423 ft 138 kts 303°
2026-05-07 09:59 40.62728 -73.77020 251 ft 137 kts 303°
2026-05-07 09:59 40.63192 -73.78047 57 ft 137 kts 303°
2026-05-07 09:59 40.63614 -73.78974 32 ft 81 kts 301°
2026-05-07 09:59 40.63762 -73.79297 29 ft 29 kts 301°
2026-05-07 10:00 40.63834 -73.79450 28 ft 30 kts 307°
2026-05-07 10:00 40.63960 -73.79512 29 ft 10 kts 26°
2026-05-07 10:00 40.63967 -73.79462 29 ft 7 kts 106°
2026-05-07 10:00 40.63932 -73.79389 29 ft 12 kts 126°
2026-05-07 10:01 40.63878 -73.79288 29 ft 15 kts 121°
2026-05-07 10:01 40.63820 -73.79149 29 ft 19 kts 118°
2026-05-07 10:01 40.63747 -73.78984 29 ft 22 kts 121°
2026-05-07 10:01 40.63662 -73.78799 31 ft 25 kts 121°
2026-05-07 10:02 40.63575 -73.78607 31 ft 17 kts 121°
2026-05-07 10:02 40.63552 -73.78556 30 ft 7 kts 121°
2026-05-07 10:02 40.63521 -73.78489 31 ft 11 kts 121°
2026-05-07 10:02 40.63513 -73.78472 30 ft 2 kts 121°
2026-05-07 10:03 40.63502 -73.78447 30 ft 5 kts 121°
2026-05-07 10:03 40.63476 -73.78390 30 ft 9 kts 120°
2026-05-07 10:03 40.63436 -73.78300 30 ft 13 kts 120°
2026-05-07 10:03 40.63386 -73.78188 30 ft 11 kts 121°
2026-05-07 10:04 40.63358 -73.78126 30 ft 7 kts 121°
2026-05-07 10:04 40.63334 -73.78051 30 ft 11 kts 105°
2026-05-07 10:04 40.63353 -73.77964 29 ft 12 kts 29°
2026-05-07 10:04 40.63428 -73.77891 29 ft 16 kts 36°
2026-05-07 10:05 40.63506 -73.77829 29 ft 13 kts 24°
2026-05-07 10:05 40.63589 -73.77881 29 ft 15 kts 330°
2026-05-07 10:05 40.63708 -73.77904 29 ft 19 kts 353°
2026-05-07 10:05 40.63818 -73.77922 29 ft 9 kts 353°
2026-05-07 10:06 40.63878 -73.77932 29 ft 6 kts 353°
2026-05-07 10:06 40.63930 -73.77941 29 ft 9 kts 353°
2026-05-07 10:06 40.64009 -73.77955 29 ft 13 kts 344°
2026-05-07 10:06 40.64092 -73.78007 29 ft 7 kts 317°
2026-05-07 10:07 40.64093 -73.78077 29 ft 10 kts 233°
2026-05-07 10:07 40.64073 -73.78108 29 ft 0 kts 237°